Weather in Ilskhan-Yurt

Russia / Chechen Republic     43°16′35″N   46°06′00″E
temp.,
°C
wind,
m/s
gust,
m/s
humid.,
%
clouds,
%
prec.,
mm/h
press.,
hPa
HPBL,
m
1 august, sun
sun100:00+23ssw225743 0.0 101037
03:00+21ssw22625 0.0 101035
06:00+23ssw11585 0.0 101162
09:00+30nw22395 0.0 1011778
12:00+34nnw32263 0.0 10092125
15:00+36n33249 0.0 10082796
18:00+33e5535100 0.0 1008717
21:00+25se1257100 0.0 100952
2 august, mon
mon200:00+24ssw235869 0.0 100945
03:00+23ssw226296 0.0 100935
06:00+23s2271100 0.8 101179
09:00+29n114893 0.8 1011418
12:00+34ene323386 0.0 10101800
15:00+36se6622100 0.0 10082150
18:00+33se2328100 0.0 1008739
21:00+26wsw3559100 0.1 1011208
3 august, tue
tue300:00+24ssw226241 0.0 101041
03:00+22ssw126186 0.0 101030
06:00+24ssw225410 0.0 101281
09:00+31wnw21345 0.0 1012740
12:00+36n32263 0.0 10102172
15:00+37nnw32221 0.0 10083050
18:00+36nw232333 0.0 10081750
21:00+27ssw33380 0.0 101136
4 august, wed
wed400:00+25ssw23500 0.0 101148
03:00+24ssw23510 0.0 101150
06:00+26sw22470 0.0 101380
09:00+34w44300 0.0 1013958
12:00+38wnw43230 0.0 10112728
15:00+39nw43190 0.0 10103407
18:00+36nw4523100 0.0 10101590
21:00+28ssw51048100 0.0 1012244
5 august, thu
thu500:00+25sw235770 0.0 101247
03:00+24ssw236157 0.2 101364
06:00+24sw23600 0.2 1014117
09:00+31wnw33370 0.3 10151228
12:00+35n32280 0.0 10132015
15:00+37ne33250 0.0 10112640
18:00+33ese810314 0.0 1011755
21:00+26se34530 0.1 101281